Date String (YYYY-MM-DD hh:mm:ss) UTC,Instrument flags,Ambient pressure (hPa),Sample flow (lpm),Bypass flow (lpm),Sample temperature (°C),Ambient temperature (°C),ASC tube jacket temperature (°C),LED temperature (°C),Box temperature (°C),Sample RH (%),Span deviation,Mass concentration (μg/m³),Mass concentration (μg/m³),Mass concentration (μg/m³)
DateTimeUTC,F1_M11,P_M11,Q1_M11,Q2_M11,T1_M11,T2_M11,T3_M11,T4_M11,T5_M11,U1_M11,ZSPAN_M11,X0_M11,X2_M11,X1_M11
2022-09-18 16:00:00,,0827.0,4.99,0.00,30.3,28.8,00.0,39.0,32.1,23.1,0000.0,0013.44,0006.44,0005.84
2022-09-18 16:01:00,,0827.0,5.01,0.00,30.3,28.9,00.0,39.0,32.1,23.1,0000.0,0012.21,0006.40,0005.83
2022-09-18 16:02:00,,0827.0,4.99,0.00,30.3,29.0,00.0,39.0,32.2,23.3,0000.0,0012.05,0006.36,0005.81
2022-09-18 16:03:00,,0827.0,5.01,0.00,30.4,29.1,00.0,39.0,32.2,23.5,0000.7,0012.21,0006.31,0005.77
2022-09-18 16:04:00,,0827.0,5.00,0.00,30.4,29.1,00.0,39.1,32.2,23.4,0001.4,0012.19,0006.31,0005.74
2022-09-18 16:05:00,,0827.0,4.99,0.00,30.4,29.2,00.0,39.1,32.3,23.1,0001.6,0012.10,0006.27,0005.72
2022-09-18 16:06:00,,0827.2,5.00,0.00,30.5,29.2,00.0,39.1,32.3,23.2,0001.7,0012.07,0006.25,0005.70
2022-09-18 16:07:00,,0827.1,5.00,0.00,30.5,29.3,00.0,39.1,32.3,23.3,0001.8,0012.43,0006.25,0005.68
2022-09-18 16:08:00,,0827.2,4.99,0.00,30.5,29.3,00.0,39.1,32.4,23.2,0001.8,0011.77,0006.21,0005.65
2022-09-18 16:09:00,,0827.1,5.00,0.00,30.5,29.0,00.0,39.1,32.4,23.2,0001.9,0011.25,0006.21,0005.65
2022-09-18 16:10:00,,0827.0,5.00,0.00,30.5,27.7,00.0,39.1,32.3,23.3,0001.9,0011.42,0006.20,0005.65
2022-09-18 16:11:00,,0827.1,5.02,0.00,30.5,27.0,00.0,39.1,32.2,23.3,0001.7,0011.66,0006.20,0005.64
2022-09-18 16:12:00,,0827.2,5.00,0.00,30.4,27.0,00.0,39.1,32.1,23.4,0001.7,0011.55,0006.17,0005.63
2022-09-18 16:13:00,,0827.2,4.99,0.00,30.3,27.3,00.0,39.0,31.9,23.4,0001.8,0011.95,0006.18,0005.63
2022-09-18 16:14:00,,0827.2,4.99,0.00,30.3,27.7,00.0,39.0,31.9,23.7,0001.0,0011.95,0006.18,0005.64
2022-09-18 16:15:00,,0827.3,5.00,0.00,30.2,28.0,00.0,39.0,32.0,23.7,0000.4,0012.04,0006.17,0005.65
2022-09-18 16:16:00,,0827.2,5.00,0.00,30.2,28.2,00.0,39.0,32.0,23.9,0000.3,0012.16,0006.21,0005.67
2022-09-18 16:17:00,,0827.2,4.99,0.00,30.2,28.4,00.0,39.0,32.0,24.0,0000.4,0012.06,0006.19,0005.68
2022-09-18 16:18:00,,0827.2,5.01,0.00,30.2,28.6,00.0,39.0,32.0,23.8,0000.6,0011.31,0006.16,0005.69
2022-09-18 16:19:00,,0827.2,4.99,0.00,30.2,28.7,00.0,39.0,32.1,23.8,0000.6,0010.60,0006.15,0005.70
2022-09-18 16:20:00,,0827.2,5.01,0.00,30.3,28.8,00.0,39.0,32.1,23.8,0000.5,0011.38,0006.18,0005.72
2022-09-18 16:21:00,,0827.2,4.99,0.00,30.3,28.9,00.0,39.0,32.1,23.9,0000.4,0011.85,0006.20,0005.72
2022-09-18 16:22:00,,0827.2,5.00,0.00,30.3,29.0,00.0,39.0,32.1,23.9,0000.8,0011.38,0006.22,0005.75
2022-09-18 16:23:00,,0827.2,5.00,0.00,30.3,29.0,00.0,39.0,32.2,23.8,0001.3,0011.52,0006.26,0005.77
2022-09-18 16:24:00,,0827.2,4.99,0.00,30.4,29.1,00.0,39.0,32.2,23.8,0001.1,0011.36,0006.30,0005.80
2022-09-18 16:25:00,,0827.2,5.00,0.00,30.4,29.1,00.0,39.0,32.2,23.7,0001.4,0011.04,0006.31,0005.82
2022-09-18 16:26:00,,0827.2,5.00,0.00,30.4,29.2,00.0,39.1,32.3,23.5,0001.4,0011.08,0006.35,0005.84
2022-09-18 16:27:00,,0827.5,4.99,0.00,30.5,29.3,00.0,39.1,32.3,23.4,0001.3,0011.38,0006.39,0005.85
2022-09-18 16:28:00,,0827.2,5.01,0.00,30.5,29.1,00.0,39.1,32.4,23.3,0001.2,0011.77,0006.41,0005.86
2022-09-18 16:29:00,,0827.2,5.01,0.00,30.5,27.8,00.0,39.1,32.3,23.6,0000.9,0012.39,0006.43,0005.87
2022-09-18 16:30:00,,0827.3,5.01,0.00,30.4,26.9,00.0,39.0,32.2,23.8,0000.5,0012.55,0006.49,0005.91
2022-09-18 16:31:00,,0827.2,5.00,0.00,30.4,27.0,00.0,39.0,32.1,23.9,0000.3,0012.17,0006.49,0005.94
2022-09-18 16:32:00,,0827.3,5.00,0.00,30.3,27.2,00.0,39.0,31.9,23.9,0000.5,0011.25,0006.51,0005.98
2022-09-18 16:33:00,,0827.3,5.00,0.00,30.2,27.6,00.0,38.9,31.9,24.2,0000.6,0011.26,0006.56,0006.01
2022-09-18 16:34:00,,0827.3,4.99,0.00,30.2,27.8,00.0,38.9,31.9,24.4,0000.3,0011.65,0006.58,0006.04
2022-09-18 16:35:00,,0827.4,5.01,0.00,30.2,28.1,00.0,38.9,31.9,24.6,0000.1,0011.63,0006.60,0006.05
2022-09-18 16:36:00,,0827.2,4.99,0.00,30.2,28.3,00.0,38.9,32.0,24.4,0000.1,0011.62,0006.61,0006.06
2022-09-18 16:37:00,,0827.2,5.01,0.00,30.2,28.5,00.0,38.9,32.0,24.4,0000.4,0011.75,0006.66,0006.10
2022-09-18 16:38:00,,0827.2,4.99,0.00,30.2,28.7,00.0,38.9,32.0,24.3,0000.7,0011.54,0006.67,0006.15
2022-09-18 16:39:00,,0827.3,5.01,0.00,30.2,28.8,00.0,38.9,32.1,24.1,0000.6,0011.84,0006.72,0006.20
2022-09-18 16:40:00,,0827.3,5.00,0.00,30.3,28.9,00.0,38.9,32.1,24.0,0000.9,0011.49,0006.80,0006.26
2022-09-18 16:41:00,,0827.3,5.00,0.00,30.3,29.0,00.0,38.9,32.1,24.4,0001.3,0011.31,0006.82,0006.29
2022-09-18 16:42:00,,0827.3,5.00,0.00,30.3,29.1,00.0,39.0,32.2,24.3,0001.7,0011.32,0006.89,0006.30
2022-09-18 16:43:00,,0827.3,5.01,0.00,30.3,29.2,00.0,39.0,32.2,24.4,0001.4,0011.42,0006.94,0006.31
2022-09-18 16:44:00,,0827.2,5.00,0.00,30.4,29.2,00.0,39.0,32.3,24.3,0001.3,0011.40,0006.94,0006.32
2022-09-18 16:45:00,,0827.2,5.01,0.00,30.4,29.3,00.0,39.0,32.3,24.2,0001.4,0011.14,0006.94,0006.32
2022-09-18 16:46:00,,0827.2,4.99,0.00,30.4,28.7,00.0,39.0,32.3,24.4,0002.0,0011.03,0006.98,0006.35
2022-09-18 16:47:00,,0827.2,5.00,0.00,30.4,27.4,00.0,39.0,32.2,24.3,0001.9,0011.22,0007.06,0006.40
2022-09-18 16:48:00,,0827.2,5.00,0.00,30.4,26.9,00.0,39.0,32.1,24.4,0001.5,0011.25,0007.09,0006.42
2022-09-18 16:49:00,,0827.3,5.01,0.00,30.3,27.1,00.0,38.9,32.0,24.4,0001.1,0011.17,0007.07,0006.40
2022-09-18 16:50:00,,0827.3,5.00,0.00,30.2,27.4,00.0,38.9,31.9,24.5,0001.2,0010.84,0007.07,0006.39
2022-09-18 16:51:00,,0827.3,5.00,0.00,30.2,27.7,00.0,38.9,31.9,24.2,0001.2,0010.43,0007.04,0006.38
2022-09-18 16:52:00,,0827.3,5.00,0.00,30.2,28.0,00.0,38.9,31.9,24.6,0001.3,0010.99,0007.06,0006.39
2022-09-18 16:53:00,,0827.2,4.99,0.00,30.1,28.2,00.0,38.9,31.9,25.1,0001.2,0010.93,0007.02,0006.40
2022-09-18 16:54:00,,0827.3,5.01,0.00,30.2,28.4,00.0,38.9,32.0,25.2,0001.0,0010.83,0006.97,0006.40
2022-09-18 16:55:00,,0827.3,4.99,0.00,30.2,28.6,00.0,38.9,32.0,25.3,0000.9,0011.02,0007.01,0006.42
2022-09-18 16:56:00,,0827.2,5.00,0.00,30.2,28.7,00.0,38.9,32.0,25.2,0000.6,0011.18,0007.06,0006.45
2022-09-18 16:57:00,,0827.5,5.01,0.00,30.2,28.8,00.0,38.9,32.0,25.2,0000.3,0011.45,0007.06,0006.46
2022-09-18 16:58:00,,0827.2,5.00,0.00,30.2,28.9,00.0,38.9,32.1,25.7,0000.6,0011.69,0007.06,0006.47
2022-09-18 16:59:00,,0827.2,5.00,0.00,30.3,29.0,00.0,38.9,32.1,26.1,0001.1,0011.65,0007.08,0006.50
